Find Starlink 5031

NORAD ID: 53889 Int'l Des: 2022-119 Owner: SPXS Country: US Constellation: starlink operational
LEOCIRCULAR

現在のビュー

3D地球を読み込み中...

About Starlink 5031

Starlink 5031 (NORAD 53889) is a starlink constellation satellite (v1.5) launched Sep 24, 2022 by SPXS of US. It operates in LEO, CIRCULAR orbit with a mass of 305.00 kg.

Starlink 5031について

説明を読み込み中...

次回通過

Passes for default location (London). Set your location on the main map for personalized predictions.

高度履歴

Loading altitude history...

軌道要素

1 53889U 22119D 26167.52787595 -.00002370 00000-0 -13090-3 0 9998
2 53889 53.1598 240.4775 0001271 86.9588 273.1549 15.08832512206600
Epoch: Jun 16, 2026 • Age: 5 hours

現在のステータス

高度 553.9 km
速度 7.58 km/s
衛星直下点 -40.65°S, 36.89°E
打ち上げ日 Sep 24, 2022
運用期間 3.7 years
タイプ internet

技術仕様

分類 Payload
質量 305.00 kg
乾燥質量 290.00 kg
総質量 305.00 kg
長さ 0.20 m
直径 2.80 m
スパン 9.00 m
形状 Box + pan
製造者 SPXS
バスタイプ Starlink
フェーズステータス In Orbit
所有者/国 SPXS/US

Most Searched